Weather History for KHYA - November, 2011

Change the Weather History Date:

Sunday, November 20, 2011

  Actual Average Record
Temperature  
Mean Temperature 58 °F -  
Max Temperature 61 °F 49 °F 69 °F (1953)
Min Temperature 54 °F 33 °F 19 °F (1961)
Degree Days  
Heating Degree Days 8    
Growing Degree Days 8 (Base 50)    
Moisture  
Dew Point 50 °F    
Average Humidity 79    
Maximum Humidity 86    
Minimum Humidity 68    
Precipitation  
Precipitation 0.00 in - - ()
Sea Level Pressure  
Sea Level Pressure 30.09 in    
Wind  
Wind Speed 20 mph (SW)    
Max Wind Speed 29 mph    
Max Gust Speed 44 mph    
Visibility 10 miles    
Events      
Averages and records for this station are not official NWS values.
T = Trace of Precipitation, MM = Missing Value Source: NWS Daily Summary

Daily Weather History Graph

Daily Weather History Graph

Search for Another Location

Airport or City:

Trip Planner

Search our weather history database for the weather conditions in past years. The results will help you decide how hot, cold, wet, or windy it might be!

Date:

Astronomy

Nov. 20, 2011 Rise Set
Actual Time 6:35 AM EST 4:17 PM EST
Civil Twilight 6:05 AM EST 4:47 PM EST
Nautical Twilight 5:31 AM EST 5:21 PM EST
Astronomical Twilight 4:58 AM EST 5:54 PM EST
Moon 12:56 AM EST (11/20) 1:08 PM EST (11/20)
Length of Visible Light 10h 41m
Length of Day
9h 41m
Waning Crescent, 27% of the Moon is Illuminated
Nov 20
Waning Crescent
Nov 25
New
Dec 2
First Quarter
Dec 10
Full
Dec 17
Last Quarter

Hourly Weather History & Observations

Time (EST) Temp. Dew Point Humidity Pressure Visibility Wind Dir Wind Speed Gust Speed Precip Events Conditions
12:56 AM 55.0 °F 48.9 °F 80% 30.22 in 10.0 mi SW 19.6 mph 27.6 mph N/A   Clear
1:56 AM 55.9 °F 48.9 °F 77% 30.20 in 10.0 mi SW 23.0 mph 31.1 mph N/A   Partly Cloudy
2:56 AM 57.0 °F 50.0 °F 77% 30.18 in 10.0 mi SW 23.0 mph 34.5 mph N/A   Overcast
3:56 AM 55.0 °F 48.0 °F 77% 30.17 in 10.0 mi SW 20.7 mph 32.2 mph 0.00 in   Mostly Cloudy
4:56 AM 54.0 °F 50.0 °F 86% 30.16 in 10.0 mi SW 15.0 mph - N/A   Mostly Cloudy
5:56 AM 55.0 °F 51.1 °F 86% 30.14 in 10.0 mi SW 17.3 mph 24.2 mph N/A   Partly Cloudy
6:56 AM 55.9 °F 51.1 °F 84% 30.13 in 10.0 mi SSW 17.3 mph 26.5 mph N/A   Scattered Clouds
7:56 AM 57.9 °F 51.1 °F 78% 30.12 in 10.0 mi SW 20.7 mph 26.5 mph N/A   Mostly Cloudy
8:56 AM 60.1 °F 50.0 °F 69% 30.11 in 10.0 mi SW 21.9 mph 31.1 mph N/A   Partly Cloudy
9:43 AM 60.8 °F 50.0 °F 68% 30.09 in 10.0 mi SW 28.8 mph 40.3 mph N/A   Mostly Cloudy
9:56 AM 60.8 °F 50.0 °F 68% 30.09 in 10.0 mi SW 25.3 mph 43.7 mph N/A   Mostly Cloudy
10:27 AM 60.8 °F 51.8 °F 72% 30.07 in 10.0 mi SW 27.6 mph 36.8 mph N/A   Partly Cloudy
10:56 AM 61.0 °F 51.1 °F 70% 30.07 in 10.0 mi SW 25.3 mph 38.0 mph N/A   Scattered Clouds
11:56 AM 59.0 °F 51.1 °F 75% 30.05 in 10.0 mi SW 26.5 mph 34.5 mph N/A   Overcast
12:56 PM 60.1 °F 51.1 °F 72% 30.04 in 10.0 mi WSW 21.9 mph 27.6 mph N/A   Mostly Cloudy
1:56 PM 59.0 °F 51.1 °F 75% 30.03 in 10.0 mi SW 18.4 mph 27.6 mph N/A   Scattered Clouds
2:56 PM 57.2 °F 51.8 °F 82% 30.02 in 10.0 mi SW 21.9 mph 31.1 mph N/A   Clear
3:56 PM 55.9 °F 50.0 °F 80% 30.04 in 10.0 mi SW 17.3 mph - N/A   Clear
4:56 PM 55.0 °F 50.0 °F 83% 30.05 in 10.0 mi SW 17.3 mph - N/A   Clear
5:56 PM 55.4 °F 50.0 °F 82% 30.06 in 10.0 mi SW 16.1 mph - N/A   Clear
6:56 PM 55.0 °F 51.1 °F 86% 30.07 in 10.0 mi SW 13.8 mph - N/A   Clear
7:56 PM 55.0 °F 51.1 °F 86% 30.07 in 10.0 mi SW 12.7 mph - N/A   Clear
8:56 PM 55.0 °F 51.1 °F 86% 30.07 in 10.0 mi WSW 10.4 mph - N/A   Clear
9:56 PM 54.0 °F 48.9 °F 83% 30.06 in 10.0 mi SW 9.2 mph - N/A   Clear
10:56 PM 55.0 °F 50.0 °F 83% 30.05 in 10.0 mi WSW 8.1 mph - N/A   Clear
11:56 PM 55.0 °F 50.0 °F 83% 30.06 in 10.0 mi West 11.5 mph - N/A   Clear